Location: *
(44.9308°N, 123.0197°W)
Time: 21:53:47
(UTC+00:00)

STARLINK-61 - Pass Details

Date: 09 April 2020
Orbit: 507 x 515 km, 53.0° (Epoch: 02 June)

Event Time Altitude Azimuth Distance (km) Brightness Sun altitude
Rises 13:07:38 0° 303° (WNW) 2,622 6.7 -5.9°
Reaches altitude 10° 13:09:53 10° 309° (NW) 1,732 5.8 -5.5°
Maximum altitude 13:13:42 49° 25° (NNE) 664 4.4 -4.8°
Drops below altitude 10° 13:17:30 10° 102° (ESE) 1,722 7.4 -4.2°
Sets 13:19:44 0° 107° (ESE) 2,604 8.2 -3.8°
